"Pseudo-MPEC" for P21Y2Im

Created 2024 Sep 5 13:22:35 UT using Find_Orb

Click here for an explanation of pseudo-MPECs

 
 Astrometry: 
     P21Y2Im* C2024 09 05.26280421 52 27.972+17 51 26.81   ~958M 21.93wXNEOCPF52
     P21Y2Im  C2024 09 05.27468421 52 26.028+17 51 55.55   ~958M 22.24wXNEOCPF52
     P21Y2Im  C2024 09 05.29846121 52 21.996+17 52 52.72   ~958M 22.50wXNEOCPF52

Station data:
(F52) Pan-STARRS 2, Haleakala  (N20.707382 W156.255910)  US/Hawaii.
   Observers J. Bulger, T. Dukes, T. Lowe, A. Schultz, M. Willman. Measurers
   K. Chambers, S. Chastel, T. de Boer, L. Denneau, J. Fairlamb, H.
   Flewelling, M. Huber, C.-C. Lin, E. Magnier, Y. Ramanjooloo, R. Wainscoat,
   R. Weryk. 1.8-m Ritchey-Chrétien + CCD.

Orbital elements:  P21Y2Im
   Perihelion 2024 Nov 17.02042 +/- 58 TT =  0:29:24 (JD 2460631.52042)
Epoch 2024 Sep  5.0 TT = JDT 2460558.5   Earth MOID: 0.0942      AutoNEOCP
M 337.16882439 +/- 26               (J2000 ecliptic)
n   0.31266837 +/- 0.271            Peri.  114.84022 +/- 110
a   2.14987598 +/- 1.24             Node   304.90317 +/- 47
e   0.5639976 +/- 0.269             Incl.   11.63043 +/- 13
P   3.15225                H 22.84  G  0.15   U 11.9  SR
q 0.93735090 +/- 0.305    Q 3.36240106 +/- 34.8
From 3 observations 2024 Sept. 5 (51.3 min); mean residual 0".19
Residuals in arcseconds: 
240905 F52  .25-  .04-    240905 F52  .37+  .06+    240905 F52  .12-  .02-    

Ephemerides (geocentric):
Date (UTC) HH   RA             Dec           delta  r     elong  mag " sig PA
---- --------  ------------   ------------  ------ ------ -----  --- --------
2024 09 05 13  21 51 42.169   +18 02 34.66  .32990 1.3053 150.4 22.1 61.3  70
2024 09 05 14  21 51 35.476   +18 04 14.14  .32967 1.3049 150.4 22.1 79.6  70
2024 09 05 15  21 51 28.775   +18 05 53.68  .32943 1.3046 150.3 22.1 97.9  71
2024 09 05 16  21 51 22.065   +18 07 33.27  .32920 1.3043 150.3 22.1  116  71
2024 09 05 17  21 51 15.348   +18 09 12.92  .32897 1.3040 150.2 22.1  135  71
2024 09 05 18  21 51 08.622   +18 10 52.63  .32874 1.3036 150.2 22.1  153  71
2024 09 05 19  21 51 01.888   +18 12 32.40  .32850 1.3033 150.2 22.1  172  70
2024 09 05 20  21 50 55.146   +18 14 12.22  .32827 1.3030 150.1 22.1  190  70
2024 09 05 21  21 50 48.397   +18 15 52.10  .32804 1.3027 150.1 22.1  209  70
2024 09 05 22  21 50 41.638   +18 17 32.03  .32781 1.3023 150.0 22.1  228  69
2024 09 05 23  21 50 34.872   +18 19 12.03  .32758 1.3020 150.0 22.1  246  69
2024 09 06 00  21 50 28.098   +18 20 52.07  .32735 1.3017 149.9 22.1  265  69
2024 09 06 01  21 50 21.315   +18 22 32.18  .32712 1.3014 149.9 22.1  285  68
2024 09 06 02  21 50 14.525   +18 24 12.34  .32689 1.3010 149.8 22.1  304  67
2024 09 06 03  21 50 07.726   +18 25 52.56  .32666 1.3007 149.8 22.1  323  67
2024 09 06 04  21 50 00.920   +18 27 32.83  .32643 1.3004 149.7 22.1  343  66
2024 09 06 05  21 49 54.105   +18 29 13.16  .32620 1.3001 149.7 22.1  364  65
2024 09 06 06  21 49 47.282   +18 30 53.55  .32597 1.2997 149.6 22.1  384  64
2024 09 06 07  21 49 40.451   +18 32 33.99  .32575 1.2994 149.6 22.1  405  63
2024 09 06 08  21 49 33.612   +18 34 14.49  .32552 1.2991 149.5 22.1  427  62
2024 09 06 09  21 49 26.765   +18 35 55.04  .32529 1.2988 149.5 22.1  450  60
2024 09 06 10  21 49 19.909   +18 37 35.65  .32506 1.2984 149.5 22.1  473  59
2024 09 06 11  21 49 13.046   +18 39 16.31  .32484 1.2981 149.4 22.1  498  57
2024 09 06 12  21 49 06.174   +18 40 57.04  .32461 1.2978 149.4 22.1  524  55
2024 09 06 13  21 48 59.295   +18 42 37.81  .32438 1.2975 149.3 22.1  552  53
2024 09 06 14  21 48 52.407   +18 44 18.64  .32416 1.2971 149.3 22.1  582  51
2024 09 06 15  21 48 45.512   +18 45 59.53  .32393 1.2968 149.2 22.1  614  48
2024 09 06 16  21 48 38.608   +18 47 40.47  .32371 1.2965 149.2 22.1  650  45
2024 09 06 17  21 48 31.696   +18 49 21.47  .32348 1.2962 149.1 22.1  690  43
2024 09 06 18  21 48 24.776   +18 51 02.52  .32326 1.2958 149.1 22.1  734  40
2024 09 06 19  21 48 17.848   +18 52 43.63  .32303 1.2955 149.0 22.1  784  37
2024 09 06 20  21 48 10.912   +18 54 24.79  .32281 1.2952 149.0 22.1  840  34
2024 09 06 21  21 48 03.968   +18 56 06.01  .32258 1.2949 148.9 22.1  903  32
2024 09 06 22  21 47 57.016   +18 57 47.28  .32236 1.2945 148.9 22.1  974  29
2024 09 06 23  21 47 50.056   +18 59 28.60  .32214 1.2942 148.8 22.1 1055  27
2024 09 07 00  21 47 43.087   +19 01 09.99  .32191 1.2939 148.8 22.1 1147  25
2024 09 07 01  21 47 36.111   +19 02 51.42  .32169 1.2936 148.7 22.1 1251  24
2024 09 07 02  21 47 29.127   +19 04 32.91  .32147 1.2932 148.7 22.1 1370  22
2024 09 07 03  21 47 22.134   +19 06 14.46  .32125 1.2929 148.6 22.1 1506  21
2024 09 07 04  21 47 15.134   +19 07 56.05  .32102 1.2926 148.6 22.1 1664  20
2024 09 07 05  21 47 08.125   +19 09 37.71  .32080 1.2923 148.5 22.1 1849  19
2024 09 07 06  21 47 01.109   +19 11 19.41  .32058 1.2919 148.5 22.1 2067  19
2024 09 07 07  21 46 54.084   +19 13 01.17  .32036 1.2916 148.4 22.1 2327  18
2024 09 07 08  21 46 47.051   +19 14 42.99  .32014 1.2913 148.4 22.1 2643  18
2024 09 07 09  21 46 40.011   +19 16 24.86  .31992 1.2910 148.3 22.1 3034  17
2024 09 07 10  21 46 32.962   +19 18 06.78  .31970 1.2906 148.3 22.1 3531  17
2024 09 07 11  21 46 25.905   +19 19 48.76  .31948 1.2903 148.2 22.0 4183  17
2024 09 07 12  21 46 18.841   +19 21 30.79  .31926 1.2900 148.2 22.0 5078  17